Tracking 25707 objects as of 29-Jun-2022
HD Live streaming from Space Station
objects crossing your sky now

STARLINK-3961

Track STARLINK-3961 now!
10-day predictions
STARLINK-3961 is classified as:


NORAD ID: 52637
Int'l Code: 2022-052AR
Perigee: 355.0 km
Apogee: 359.1 km
Inclination: 53.2 °
Period: 91.5 minutes
Semi major axis: 6728 km
RCS: Unknown
Launch date: May 14, 2022
Source: United States (US)
Launch site: AIR FORCE EASTERN TEST RANGE (AFETR)
aabbcc
Your satellite tracking list
Your tracking list is empty




NASA's NSSDC Master Catalog

Two Line Element Set (TLE):
1 52637U 22052AR  22180.58334491  .00060811  00000-0  43545-3 0  9994
2 52637  53.2128 213.1891 0003100  18.0693 203.8193 15.73148628  1307
Source of the keplerian elements: AFSPC